Regional Weather Roundup
Issued by NWS Cleveland, OH

Home | Current Version | Previous Version | Graphics & Text | Print | Product List | Glossary On
Versions: 1 2 3 4 5 6 7 8 9 10 11 12 13 14 15 16 17 18 19 20 21 22 23 24 25 26 27 28 29 30 31 32 33 34 35 36 37 38 39 40 41 42 43 44 45 46 47 48 49 50
000
ASUS41 KCLE 060610
RWRCLE
OHIO REGIONAL WEATHER ROUNDUP
NATIONAL WEATHER SERVICE CLEVELAND, OH
100 AM EST TUE DEC 06 2016

NOTE: "FAIR" INDICATES FEW OR NO CLOUDS BELOW 12,000 FEET WITH NO
SIGNIFICANT WEATHER AND/OR OBSTRUCTIONS TO VISIBILITY.

OHZ001>008-015>018-024>027-034-035-043-044-060700-
   NORTHWEST OHIO

CITY           SKY/WX    TMP DP  RH WIND       PRES   REMARKS
DEFIANCE       PTCLDY    31  26  82 E7        29.98F WCI  24
FINDLAY        PTCLDY    31  26  82 E8        29.97F WCI  23
TOLEDO EXPRESS PTCLDY    27  26  96 E5        30.02F WCI  22
TOLEDO EXEC    PTCLDY    30  28  92 E5        30.03F WCI  25
LIMA           CLEAR     30  27  88 E12       29.94F WCI  20
$$

OHZ009>014-019>023-028>033-038-089-060700-
   NORTHEAST OHIO

CITY           SKY/WX    TMP DP  RH WIND       PRES   REMARKS
CLE-HOPKINS    MOCLDY    32  25  75 E6        30.06F WCI  26
CLE-LAKEFRONT  CLEAR     34  27  75 E6        30.05F WCI  29
CUY CO. ARPT   NOT AVBL
LORAIN-ELYRIA  CLOUDY    28  23  81 SE5       30.04F WCI  23
ASHTABULA      CLEAR     27  25  92 E5        30.08F WCI  22
AKRON-CANTON   CLOUDY    31  25  78 E9        30.02F WCI  23
WOOSTER        CLOUDY    27  24  89 E7        30.03F WCI  19
MANSFIELD      CLOUDY    29  26  89 E8        29.99F WCI  21
YOUNGSTOWN     PTCLDY    29  25  85 E8        30.05F WCI  21
$$

OHZ042-051>053-060>062-070>072-077>081-060700-
  SOUTHWEST OHIO

CITY           SKY/WX    TMP DP  RH WIND       PRES   REMARKS
CINC-COVINGTON CLOUDY    40  33  76 NE10      29.86F
CINC-LUNKEN    CLOUDY    40  34  79 NE8       29.89F
HAMILTON       CLOUDY    38  32  79 E7        29.90F
DAYTON         CLOUDY    34  29  82 E10       29.90F WCI  26
WRIGHT-PAT AFB CLOUDY    35  31  85 E8        29.90F WCI  29
DAYTON GENERAL CLOUDY    37  30  75 E12       29.88F
WILMINGTON     CLOUDY    35  31  85 E10       29.89F WCI  27
$$

OHZ036-037-039>041-045>050-054>059-063>069-073>076-082>088-060700-
  CENTRAL AND SOUTHEAST OHIO

CITY           SKY/WX    TMP DP  RH WIND       PRES   REMARKS
COLUMBUS       MOCLDY    35  31  85 E8        29.94F WCI  29
OSU AIRPORT    PTCLDY    32  29  88 E10       29.93F WCI  24
BOLTON FIELD   MOCLDY    34  30  86 E8        29.93F WCI  27
RICKENBACK AFB MOCLDY    33  30  89 E12       29.93F WCI  24
NEWARK         PTCLDY    32  27  81 NE6       29.96F WCI  26
MARION         CLEAR     27  23  85 E7        29.97F WCI  19
LANCASTER      PTCLDY    35  30  82 E8        29.94F WCI  29
ZANESVILLE     PTCLDY    34  28  79 E6        29.99F WCI  29
NEW PHILLY     NOT AVBL
$$




USA.gov is the U.S. government's official web portal to all federal, state and local government web resources and services.